Time,TemperatureF,DewpointF,PressureIn,WindDirection,WindDirectionDegrees,WindSpeedMPH,WindSpeedGustMPH,Humidity,HourlyPrecipIn,Conditions,Clouds,dailyrainin,SoftwareType,DateUTC
2013-07-01 00:03:00,65.3,42.8,29.89,NNE,24,3.0,6.0,44,0.00,,---,0.00,VWS V14.00,2013-07-01 05:03:00,
2013-07-01 00:08:00,65.3,43.4,29.89,NNE,24,4.0,5.0,45,0.00,,---,0.00,VWS V14.00,2013-07-01 05:08:00,
2013-07-01 00:13:00,65.2,43.3,29.89,NNE,24,3.0,6.0,45,0.00,,---,0.00,VWS V14.00,2013-07-01 05:13:00,
2013-07-01 00:18:00,65.0,43.7,29.89,NNE,24,2.0,5.0,46,0.00,,---,0.00,VWS V14.00,2013-07-01 05:18:00,
2013-07-01 00:23:00,64.8,43.6,29.89,NNE,24,1.0,4.0,46,0.00,,---,0.00,VWS V14.00,2013-07-01 05:23:00,
2013-07-01 00:28:00,64.5,43.8,29.89,NNE,24,4.0,4.0,47,0.00,,---,0.00,VWS V14.00,2013-07-01 05:28:00,
2013-07-01 00:33:00,64.3,44.8,29.89,NNE,24,0.0,3.0,49,0.00,,---,0.00,VWS V14.00,2013-07-01 05:33:00,
2013-07-01 00:38:00,64.2,45.2,29.89,NNE,24,1.0,4.0,50,0.00,,---,0.00,VWS V14.00,2013-07-01 05:38:00,
2013-07-01 00:43:00,64.0,45.0,29.89,NNE,24,3.0,3.0,50,0.00,,---,0.00,VWS V14.00,2013-07-01 05:43:00,
2013-07-01 00:48:00,63.9,46.0,29.89,NNE,24,0.0,2.0,52,0.00,,---,0.00,VWS V14.00,2013-07-01 05:48:00,
2013-07-01 00:53:00,63.7,45.8,29.89,NNE,24,0.0,3.0,52,0.00,,---,0.00,VWS V14.00,2013-07-01 05:53:00,
2013-07-01 00:58:00,63.7,45.8,29.89,NNE,24,3.0,5.0,52,0.00,,---,0.00,VWS V14.00,2013-07-01 05:58:00,
2013-07-01 01:03:00,63.5,46.1,29.89,NNE,24,5.0,5.0,53,0.00,,---,0.00,VWS V14.00,2013-07-01 06:03:00,
2013-07-01 01:08:00,63.5,46.1,29.89,NNE,24,3.0,5.0,53,0.00,,---,0.00,VWS V14.00,2013-07-01 06:08:00,
2013-07-01 01:13:00,63.4,46.0,29.89,NNE,24,3.0,4.0,53,0.00,,---,0.00,VWS V14.00,2013-07-01 06:13:00,
2013-07-01 01:18:00,63.4,46.5,29.89,NNE,24,3.0,4.0,54,0.00,,---,0.00,VWS V14.00,2013-07-01 06:18:00,
2013-07-01 01:23:00,63.2,46.3,29.89,NNE,24,2.0,5.0,54,0.00,,---,0.00,VWS V14.00,2013-07-01 06:23:00,
2013-07-01 01:28:00,63.2,46.8,29.89,NNE,24,4.0,6.0,55,0.00,,---,0.00,VWS V14.00,2013-07-01 06:28:00,
2013-07-01 01:33:00,63.2,46.8,29.89,NNE,24,3.0,6.0,55,0.00,,---,0.00,VWS V14.00,2013-07-01 06:33:00,
2013-07-01 01:38:00,63.2,46.8,29.89,NNE,24,4.0,6.0,55,0.00,,---,0.00,VWS V14.00,2013-07-01 06:38:00,
2013-07-01 01:43:00,63.2,47.3,29.89,NNE,24,4.0,4.0,56,0.00,,---,0.00,VWS V14.00,2013-07-01 06:43:00,
2013-07-01 01:48:00,63.2,47.3,29.89,NNE,24,3.0,5.0,56,0.00,,---,0.00,VWS V14.00,2013-07-01 06:48:00,
2013-07-01 01:53:00,63.2,47.3,29.89,NNE,24,1.0,6.0,56,0.00,,---,0.00,VWS V14.00,2013-07-01 06:53:00,
2013-07-01 01:58:00,63.2,47.3,29.89,NNE,24,4.0,5.0,56,0.00,,---,0.00,VWS V14.00,2013-07-01 06:58:00,
2013-07-01 02:03:00,63.2,47.3,29.89,NNE,24,5.0,5.0,56,0.00,,---,0.00,VWS V14.00,2013-07-01 07:03:00,
2013-07-01 02:08:00,63.2,47.3,29.88,NNE,24,4.0,5.0,56,0.00,,---,0.00,VWS V14.00,2013-07-01 07:08:00,
2013-07-01 02:13:00,63.1,48.1,29.88,NNE,24,3.0,5.0,58,0.00,,---,0.00,VWS V14.00,2013-07-01 07:13:00,
2013-07-01 02:18:00,62.9,47.9,29.88,NNE,24,4.0,4.0,58,0.00,,---,0.00,VWS V14.00,2013-07-01 07:18:00,
2013-07-01 02:23:00,62.7,48.2,29.88,NNE,24,5.0,5.0,59,0.00,,---,0.00,VWS V14.00,2013-07-01 07:23:00,
2013-07-01 02:28:00,62.6,47.6,29.88,NNE,24,5.0,5.0,58,0.00,,---,0.00,VWS V14.00,2013-07-01 07:28:00,
2013-07-01 02:33:00,62.6,48.1,29.88,NNE,24,4.0,5.0,59,0.00,,---,0.00,VWS V14.00,2013-07-01 07:33:00,
2013-07-01 02:38:00,62.6,48.5,29.88,NNE,24,3.0,4.0,60,0.00,,---,0.00,VWS V14.00,2013-07-01 07:38:00,
2013-07-01 02:43:00,62.4,48.3,29.88,NNE,24,3.0,5.0,60,0.00,,---,0.00,VWS V14.00,2013-07-01 07:43:00,
2013-07-01 02:48:00,62.3,48.2,29.88,NNE,24,4.0,6.0,60,0.00,,---,0.00,VWS V14.00,2013-07-01 07:48:00,
2013-07-01 02:53:00,62.3,48.7,29.88,NNE,24,6.0,6.0,61,0.00,,---,0.00,VWS V14.00,2013-07-01 07:53:00,
2013-07-01 02:58:00,62.1,48.5,29.88,NNE,24,3.0,5.0,61,0.00,,---,0.00,VWS V14.00,2013-07-01 07:58:00,
2013-07-01 03:03:00,62.1,48.5,29.88,NNE,24,4.0,5.0,61,0.00,,---,0.00,VWS V14.00,2013-07-01 08:03:00,
2013-07-01 03:08:00,62.1,48.5,29.88,NNE,24,2.0,5.0,61,0.00,,---,0.00,VWS V14.00,2013-07-01 08:08:00,
2013-07-01 03:13:00,62.3,48.7,29.88,NNE,24,4.0,7.0,61,0.00,,---,0.00,VWS V14.00,2013-07-01 08:13:00,
2013-07-01 03:18:00,62.3,48.7,29.88,NNE,24,5.0,6.0,61,0.00,,---,0.00,VWS V14.00,2013-07-01 08:18:00,
2013-07-01 03:23:00,62.3,49.1,29.88,NNE,24,5.0,5.0,62,0.00,,---,0.00,VWS V14.00,2013-07-01 08:23:00,
2013-07-01 03:28:00,62.3,49.1,29.88,NNE,24,3.0,5.0,62,0.00,,---,0.00,VWS V14.00,2013-07-01 08:28:00,
2013-07-01 03:33:00,62.3,49.6,29.88,NNE,24,0.0,4.0,63,0.00,,---,0.00,VWS V14.00,2013-07-01 08:33:00,
2013-07-01 03:38:00,62.1,49.4,29.88,NNE,24,2.0,5.0,63,0.00,,---,0.00,VWS V14.00,2013-07-01 08:38:00,
2013-07-01 03:43:00,62.0,49.7,29.88,NNE,24,2.0,5.0,64,0.00,,---,0.00,VWS V14.00,2013-07-01 08:43:00,
2013-07-01 03:48:00,62.0,49.7,29.88,NNE,24,3.0,4.0,64,0.00,,---,0.00,VWS V14.00,2013-07-01 08:48:00,
2013-07-01 03:53:00,61.8,49.5,29.88,NNE,24,4.0,4.0,64,0.00,,---,0.00,VWS V14.00,2013-07-01 08:53:00,
2013-07-01 03:59:00,61.8,49.9,29.88,NNE,24,4.0,4.0,65,0.00,,---,0.00,VWS V14.00,2013-07-01 08:59:00,
2013-07-01 04:03:00,61.8,49.9,29.88,NNE,24,2.0,5.0,65,0.00,,---,0.00,VWS V14.00,2013-07-01 09:03:00,
2013-07-01 04:09:00,61.8,50.3,29.88,NNE,24,1.0,4.0,66,0.00,,---,0.00,VWS V14.00,2013-07-01 09:09:00,
2013-07-01 04:14:00,61.6,50.1,29.88,NNE,24,2.0,2.0,66,0.00,,---,0.00,VWS V14.00,2013-07-01 09:14:00,
2013-07-01 04:19:00,61.5,50.5,29.88,NNE,24,3.0,3.0,67,0.00,,---,0.00,VWS V14.00,2013-07-01 09:19:00,
2013-07-01 04:24:00,61.5,50.5,29.89,NNE,24,2.0,3.0,67,0.00,,---,0.00,VWS V14.00,2013-07-01 09:24:00,
2013-07-01 04:29:00,61.5,50.5,29.89,NNE,24,0.0,4.0,67,0.00,,---,0.00,VWS V14.00,2013-07-01 09:29:00,
2013-07-01 04:34:00,61.3,50.3,29.89,NNE,24,2.0,3.0,67,0.00,,---,0.00,VWS V14.00,2013-07-01 09:34:00,
2013-07-01 04:39:00,61.3,50.7,29.89,NNE,24,2.0,5.0,68,0.00,,---,0.00,VWS V14.00,2013-07-01 09:39:00,
2013-07-01 04:44:00,61.5,50.8,29.89,NNE,24,4.0,6.0,68,0.00,,---,0.00,VWS V14.00,2013-07-01 09:44:00,
2013-07-01 04:49:00,61.5,50.5,29.89,NNE,24,4.0,4.0,67,0.00,,---,0.00,VWS V14.00,2013-07-01 09:49:00,
2013-07-01 04:55:00,61.5,50.5,29.89,NNE,24,4.0,5.0,67,0.00,,---,0.00,VWS V14.00,2013-07-01 09:55:00,
2013-07-01 05:00:00,61.6,51.0,29.89,NNE,24,3.0,4.0,68,0.00,,---,0.00,VWS V14.00,2013-07-01 10:00:00,
2013-07-01 05:05:00,61.5,50.8,29.89,NNE,24,5.0,5.0,68,0.00,,---,0.00,VWS V14.00,2013-07-01 10:05:00,
2013-07-01 05:10:00,61.5,50.8,29.89,NNE,24,3.0,5.0,68,0.00,,---,0.00,VWS V14.00,2013-07-01 10:10:00,
2013-07-01 05:15:00,61.5,50.8,29.89,NNE,24,4.0,4.0,68,0.00,,---,0.00,VWS V14.00,2013-07-01 10:15:00,
2013-07-01 05:20:00,61.3,51.1,29.89,NNE,24,3.0,4.0,69,0.00,,---,0.00,VWS V14.00,2013-07-01 10:20:00,
2013-07-01 05:25:00,61.3,51.1,29.90,NNE,24,3.0,4.0,69,0.00,,---,0.00,VWS V14.00,2013-07-01 10:25:00,
2013-07-01 05:30:00,61.3,51.1,29.90,NNE,24,1.0,5.0,69,0.00,,---,0.00,VWS V14.00,2013-07-01 10:30:00,
2013-07-01 05:35:00,61.3,51.1,29.90,NNE,24,2.0,5.0,69,0.00,,---,0.00,VWS V14.00,2013-07-01 10:35:00,
2013-07-01 05:41:00,61.5,51.2,29.90,NNE,24,4.0,5.0,69,0.00,,---,0.00,VWS V14.00,2013-07-01 10:41:00,
2013-07-01 05:46:00,61.5,51.6,29.90,NNE,24,4.0,5.0,70,0.00,,---,0.00,VWS V14.00,2013-07-01 10:46:00,
2013-07-01 05:51:00,61.5,51.6,29.90,NNE,24,4.0,5.0,70,0.00,,---,0.00,VWS V14.00,2013-07-01 10:51:00,
2013-07-01 05:56:00,61.5,51.6,29.90,NNE,24,2.0,5.0,70,0.00,,---,0.00,VWS V14.00,2013-07-01 10:56:00,
2013-07-01 06:01:00,61.5,51.6,29.90,NNE,24,4.0,7.0,70,0.00,,---,0.00,VWS V14.00,2013-07-01 11:01:00,
2013-07-01 06:06:00,61.5,52.0,29.90,NNE,24,3.0,6.0,71,0.00,,---,0.00,VWS V14.00,2013-07-01 11:06:00,
2013-07-01 06:11:00,61.5,52.0,29.90,NNE,24,1.0,6.0,71,0.00,,---,0.00,VWS V14.00,2013-07-01 11:11:00,
2013-07-01 06:16:00,61.5,52.0,29.90,NNE,24,5.0,5.0,71,0.00,,---,0.00,VWS V14.00,2013-07-01 11:16:00,
2013-07-01 06:21:00,61.5,52.0,29.90,NNE,24,4.0,7.0,71,0.00,,---,0.00,VWS V14.00,2013-07-01 11:21:00,
2013-07-01 06:26:00,61.3,51.8,29.90,NNE,24,4.0,5.0,71,0.00,,---,0.00,VWS V14.00,2013-07-01 11:26:00,
2013-07-01 06:31:00,61.5,52.0,29.90,NNE,24,1.0,5.0,71,0.00,,---,0.00,VWS V14.00,2013-07-01 11:31:00,
2013-07-01 06:37:00,61.5,52.4,29.90,NNE,24,2.0,5.0,72,0.00,,---,0.00,VWS V14.00,2013-07-01 11:37:00,
2013-07-01 06:42:00,61.5,52.4,29.91,NNE,24,4.0,4.0,72,0.00,,---,0.00,VWS V14.00,2013-07-01 11:42:00,
2013-07-01 06:47:00,61.5,52.4,29.91,NNE,24,6.0,6.0,72,0.00,,---,0.00,VWS V14.00,2013-07-01 11:47:00,
2013-07-01 06:52:00,61.6,52.5,29.91,NNE,24,2.0,5.0,72,0.00,,---,0.00,VWS V14.00,2013-07-01 11:52:00,
2013-07-01 06:57:00,61.6,52.5,29.91,NNE,24,2.0,5.0,72,0.00,,---,0.00,VWS V14.00,2013-07-01 11:57:00,
2013-07-01 07:02:00,61.6,52.5,29.91,NNE,24,2.0,7.0,72,0.00,,---,0.00,VWS V14.00,2013-07-01 12:02:00,
2013-07-01 07:07:00,61.8,52.7,29.91,NNE,24,4.0,6.0,72,0.00,,---,0.00,VWS V14.00,2013-07-01 12:07:00,
2013-07-01 07:12:00,62.0,52.9,29.91,NNE,24,4.0,6.0,72,0.00,,---,0.00,VWS V14.00,2013-07-01 12:12:00,
2013-07-01 07:17:00,62.1,52.6,29.91,NNE,24,3.0,6.0,71,0.00,,---,0.00,VWS V14.00,2013-07-01 12:17:00,
2013-07-01 07:22:00,62.1,52.6,29.91,NNE,24,5.0,7.0,71,0.00,,---,0.00,VWS V14.00,2013-07-01 12:22:00,
2013-07-01 07:27:00,62.3,52.8,29.91,NNE,24,3.0,4.0,71,0.00,,---,0.00,VWS V14.00,2013-07-01 12:27:00,
2013-07-01 07:32:00,62.4,52.5,29.91,NNE,24,2.0,5.0,70,0.00,,---,0.00,VWS V14.00,2013-07-01 12:32:00,
2013-07-01 07:38:00,62.7,52.8,29.92,NNE,24,4.0,5.0,70,0.00,,---,0.00,VWS V14.00,2013-07-01 12:38:00,
2013-07-01 07:43:00,63.1,52.8,29.92,NNE,24,2.0,5.0,69,0.00,,---,0.00,VWS V14.00,2013-07-01 12:43:00,
2013-07-01 07:48:00,63.4,52.7,29.92,NNE,24,4.0,6.0,68,0.00,,---,0.00,VWS V14.00,2013-07-01 12:48:00,
2013-07-01 07:53:00,63.5,52.4,29.92,NNE,24,4.0,5.0,67,0.00,,---,0.00,VWS V14.00,2013-07-01 12:53:00,
2013-07-01 07:58:00,63.7,52.1,29.92,NNE,24,1.0,3.0,66,0.00,,---,0.00,VWS V14.00,2013-07-01 12:58:00,
2013-07-01 08:03:00,63.9,52.3,29.92,NNE,24,2.0,5.0,66,0.00,,---,0.00,VWS V14.00,2013-07-01 13:03:00,
2013-07-01 08:08:00,64.0,51.6,29.92,NNE,24,4.0,4.0,64,0.00,,---,0.00,VWS V14.00,2013-07-01 13:08:00,
2013-07-01 08:13:00,64.2,51.4,29.92,NNE,24,4.0,6.0,63,0.00,,---,0.00,VWS V14.00,2013-07-01 13:13:00,
2013-07-01 08:18:00,64.2,50.9,29.92,NNE,24,4.0,5.0,62,0.00,,---,0.00,VWS V14.00,2013-07-01 13:18:00,
2013-07-01 08:23:00,64.2,51.4,29.93,NNE,24,4.0,6.0,63,0.00,,---,0.00,VWS V14.00,2013-07-01 13:23:00,
2013-07-01 08:29:00,64.3,51.0,29.93,NNE,24,3.0,4.0,62,0.00,,---,0.00,VWS V14.00,2013-07-01 13:29:00,
2013-07-01 08:34:00,64.8,51.5,29.93,NNE,24,5.0,6.0,62,0.00,,---,0.00,VWS V14.00,2013-07-01 13:34:00,
2013-07-01 08:39:00,65.5,51.3,29.93,NNE,24,5.0,6.0,60,0.00,,---,0.00,VWS V14.00,2013-07-01 13:39:00,
2013-07-01 08:44:00,66.0,50.3,29.93,NNE,24,3.0,7.0,57,0.00,,---,0.00,VWS V14.00,2013-07-01 13:44:00,
2013-07-01 08:49:00,66.4,50.7,29.93,NNE,24,5.0,10.0,57,0.00,,---,0.00,VWS V14.00,2013-07-01 13:49:00,
2013-07-01 08:54:00,66.3,50.2,29.93,NNE,22,5.0,7.0,56,0.00,,---,0.00,VWS V14.00,2013-07-01 13:54:00,
2013-07-01 08:59:00,66.3,51.6,29.93,NNE,22,6.0,7.0,59,0.00,,---,0.00,VWS V14.00,2013-07-01 13:59:00,
2013-07-01 09:04:00,66.4,52.1,29.93,NNE,23,6.0,6.0,60,0.00,,---,0.00,VWS V14.00,2013-07-01 14:04:00,
2013-07-01 09:09:00,67.3,53.4,29.93,NNE,23,3.0,7.0,61,0.00,,---,0.00,VWS V14.00,2013-07-01 14:09:00,
2013-07-01 09:14:00,67.8,53.4,29.93,NNE,21,4.0,10.0,60,0.00,,---,0.00,VWS V14.00,2013-07-01 14:14:00,
2013-07-01 09:19:00,68.1,54.2,29.93,NNE,22,6.0,7.0,61,0.00,,---,0.00,VWS V14.00,2013-07-01 14:19:00,
2013-07-01 09:25:00,68.6,54.6,29.93,NNE,22,5.0,8.0,61,0.00,,---,0.00,VWS V14.00,2013-07-01 14:25:00,
2013-07-01 09:30:00,68.8,54.4,29.93,NNE,20,5.0,11.0,60,0.00,,---,0.00,VWS V14.00,2013-07-01 14:30:00,
2013-07-01 09:35:00,68.8,54.8,29.93,NNE,20,5.0,7.0,61,0.00,,---,0.00,VWS V14.00,2013-07-01 14:35:00,
2013-07-01 09:40:00,68.8,54.8,29.93,NNE,22,6.0,9.0,61,0.00,,---,0.00,VWS V14.00,2013-07-01 14:40:00,
2013-07-01 09:45:00,69.1,55.1,29.93,NNE,22,5.0,7.0,61,0.00,,---,0.00,VWS V14.00,2013-07-01 14:45:00,
2013-07-01 09:50:00,69.4,55.8,29.93,NNE,21,5.0,10.0,62,0.00,,---,0.00,VWS V14.00,2013-07-01 14:50:00,
2013-07-01 09:55:00,69.8,55.3,29.93,NNE,20,6.0,6.0,60,0.00,,---,0.00,VWS V14.00,2013-07-01 14:55:00,
2013-07-01 10:00:00,69.8,55.3,29.93,NNE,19,5.0,10.0,60,0.00,,---,0.00,VWS V14.00,2013-07-01 15:00:00,
2013-07-01 10:05:00,69.6,55.1,29.93,NNE,19,5.0,9.0,60,0.00,,---,0.00,VWS V14.00,2013-07-01 15:05:00,
2013-07-01 10:10:00,69.8,56.2,29.93,NNE,19,6.0,7.0,62,0.00,,---,0.00,VWS V14.00,2013-07-01 15:10:00,
2013-07-01 10:15:00,70.1,55.6,29.93,NNE,19,5.0,7.0,60,0.00,,---,0.00,VWS V14.00,2013-07-01 15:15:00,
2013-07-01 10:20:00,70.3,55.8,29.93,NNE,19,7.0,10.0,60,0.00,,---,0.00,VWS V14.00,2013-07-01 15:20:00,
2013-07-01 10:25:00,70.3,56.2,29.93,NNE,17,8.0,8.0,61,0.00,,---,0.00,VWS V14.00,2013-07-01 15:25:00,
2013-07-01 10:30:00,70.6,56.1,29.93,NNE,17,6.0,7.0,60,0.00,,---,0.00,VWS V14.00,2013-07-01 15:30:00,
2013-07-01 10:35:00,70.8,56.2,29.93,NNE,17,1.0,6.0,60,0.00,,---,0.00,VWS V14.00,2013-07-01 15:35:00,
2013-07-01 10:41:00,71.1,56.1,29.93,NNE,17,12.0,12.0,59,0.00,,---,0.00,VWS V14.00,2013-07-01 15:41:00,
2013-07-01 10:45:00,71.1,57.0,29.93,NNE,17,7.0,8.0,61,0.00,,---,0.00,VWS V14.00,2013-07-01 15:45:00,
2013-07-01 10:51:00,70.8,55.3,29.93,NNE,22,6.0,9.0,58,0.00,,---,0.00,VWS V14.00,2013-07-01 15:51:00,
2013-07-01 10:56:00,70.4,55.4,29.93,NNE,19,4.0,11.0,59,0.00,,---,0.00,VWS V14.00,2013-07-01 15:56:00,
2013-07-01 11:01:00,70.6,56.1,29.93,NNE,20,3.0,9.0,60,0.00,,---,0.00,VWS V14.00,2013-07-01 16:01:00,
2013-07-01 11:06:00,71.3,57.2,29.93,NNE,20,5.0,6.0,61,0.00,,---,0.00,VWS V14.00,2013-07-01 16:06:00,
2013-07-01 11:11:00,71.8,57.2,29.93,NNE,20,1.0,6.0,60,0.00,,---,0.00,VWS V14.00,2013-07-01 16:11:00,
2013-07-01 11:16:00,72.3,57.2,29.93,NNE,20,7.0,8.0,59,0.00,,---,0.00,VWS V14.00,2013-07-01 16:16:00,
2013-07-01 11:21:00,72.7,58.0,29.93,NNE,19,5.0,5.0,60,0.00,,---,0.00,VWS V14.00,2013-07-01 16:21:00,
2013-07-01 11:26:00,72.8,57.2,29.93,NNE,18,4.0,7.0,58,0.00,,---,0.00,VWS V14.00,2013-07-01 16:26:00,
2013-07-01 11:31:00,73.0,57.4,29.93,NNE,25,7.0,10.0,58,0.00,,---,0.00,VWS V14.00,2013-07-01 16:31:00,
2013-07-01 11:36:00,73.0,57.4,29.93,NNE,21,4.0,6.0,58,0.00,,---,0.00,VWS V14.00,2013-07-01 16:36:00,
2013-07-01 11:41:00,73.2,58.0,29.92,NNE,22,7.0,7.0,59,0.00,,---,0.00,VWS V14.00,2013-07-01 16:41:00,
2013-07-01 11:46:00,73.5,58.8,29.92,NNE,19,3.0,10.0,60,0.00,,---,0.00,VWS V14.00,2013-07-01 16:46:00,
2013-07-01 11:51:00,73.7,58.0,29.92,NNE,24,5.0,5.0,58,0.00,,---,0.00,VWS V14.00,2013-07-01 16:51:00,
2013-07-01 11:56:00,73.9,59.2,29.92,NNE,22,7.0,7.0,60,0.00,,---,0.00,VWS V14.00,2013-07-01 16:56:00,
2013-07-01 12:01:00,74.2,59.4,29.92,NNE,20,7.0,7.0,60,0.00,,---,0.00,VWS V14.00,2013-07-01 17:01:00,
2013-07-01 12:06:00,74.4,60.1,29.92,NNE,22,3.0,4.0,61,0.00,,---,0.00,VWS V14.00,2013-07-01 17:06:00,
2013-07-01 12:11:00,74.7,59.9,29.92,NNE,22,7.0,9.0,60,0.00,,---,0.00,VWS V14.00,2013-07-01 17:11:00,
2013-07-01 12:16:00,74.9,58.7,29.92,NNE,17,6.0,10.0,57,0.00,,---,0.00,VWS V14.00,2013-07-01 17:16:00,
2013-07-01 12:22:00,74.7,59.4,29.92,NNE,27,4.0,6.0,59,0.00,,---,0.00,VWS V14.00,2013-07-01 17:22:00,
2013-07-01 12:27:00,74.7,59.4,29.92,NNE,21,3.0,12.0,59,0.00,,---,0.00,VWS V14.00,2013-07-01 17:27:00,
2013-07-01 12:32:00,74.7,59.4,29.92,NNE,21,5.0,7.0,59,0.00,,---,0.00,VWS V14.00,2013-07-01 17:32:00,
2013-07-01 12:37:00,74.9,59.1,29.92,NNE,20,4.0,6.0,58,0.00,,---,0.00,VWS V14.00,2013-07-01 17:37:00,
2013-07-01 12:42:00,75.1,58.3,29.92,NNE,23,9.0,10.0,56,0.00,,---,0.00,VWS V14.00,2013-07-01 17:42:00,
2013-07-01 12:47:00,75.3,59.0,29.92,NNE,22,10.0,10.0,57,0.00,,---,0.00,VWS V14.00,2013-07-01 17:47:00,
2013-07-01 12:52:00,75.1,57.3,29.92,NNE,21,7.0,10.0,54,0.00,,---,0.00,VWS V14.00,2013-07-01 17:52:00,
2013-07-01 12:57:00,75.4,59.6,29.92,NNE,20,7.0,9.0,58,0.00,,---,0.00,VWS V14.00,2013-07-01 17:57:00,
2013-07-01 13:02:00,75.3,56.5,29.92,NNE,16,9.0,9.0,52,0.00,,---,0.00,VWS V14.00,2013-07-01 18:02:00,
2013-07-01 13:07:00,75.4,56.6,29.92,NNE,19,5.0,7.0,52,0.00,,---,0.00,VWS V14.00,2013-07-01 18:07:00,
2013-07-01 13:13:00,75.6,55.7,29.92,NNE,19,3.0,6.0,50,0.00,,---,0.00,VWS V14.00,2013-07-01 18:13:00,
2013-07-01 13:18:00,75.8,53.6,29.92,NNE,21,5.0,9.0,46,0.00,,---,0.00,VWS V14.00,2013-07-01 18:18:00,
2013-07-01 13:23:00,76.0,54.9,29.91,NNE,20,7.0,10.0,48,0.00,,---,0.00,VWS V14.00,2013-07-01 18:23:00,
2013-07-01 13:28:00,76.1,56.1,29.91,NNE,18,7.0,8.0,50,0.00,,---,0.00,VWS V14.00,2013-07-01 18:28:00,
2013-07-01 13:33:00,76.1,53.2,29.91,NNE,17,7.0,9.0,45,0.00,,---,0.00,VWS V14.00,2013-07-01 18:33:00,
2013-07-01 13:38:00,76.0,54.3,29.91,NNE,15,8.0,10.0,47,0.00,,---,0.00,VWS V14.00,2013-07-01 18:38:00,
2013-07-01 13:43:00,76.1,53.8,29.91,NNE,19,9.0,10.0,46,0.00,,---,0.00,VWS V14.00,2013-07-01 18:43:00,
2013-07-01 13:48:00,76.1,53.8,29.91,NNE,19,9.0,10.0,46,0.00,,---,0.00,VWS V14.00,2013-07-01 18:48:00,
2013-07-01 13:53:00,76.0,53.8,29.91,NNE,22,4.0,8.0,46,0.00,,---,0.00,VWS V14.00,2013-07-01 18:53:00,
2013-07-01 13:58:00,76.1,55.0,29.91,NNE,17,9.0,13.0,48,0.00,,---,0.00,VWS V14.00,2013-07-01 18:58:00,
2013-07-01 14:03:00,76.3,53.4,29.91,NNE,22,9.0,11.0,45,0.00,,---,0.00,VWS V14.00,2013-07-01 19:03:00,
2013-07-01 14:08:00,76.1,51.4,29.91,NNE,14,3.0,12.0,42,0.00,,---,0.00,VWS V14.00,2013-07-01 19:08:00,
2013-07-01 14:13:00,76.1,52.0,29.91,NNE,20,8.0,8.0,43,0.00,,---,0.00,VWS V14.00,2013-07-01 19:13:00,
2013-07-01 14:18:00,76.0,51.9,29.91,NNE,27,9.0,11.0,43,0.00,,---,0.00,VWS V14.00,2013-07-01 19:18:00,
2013-07-01 14:23:00,76.0,51.9,29.92,NNE,19,10.0,12.0,43,0.00,,---,0.00,VWS V14.00,2013-07-01 19:23:00,
2013-07-01 14:28:00,76.1,52.0,29.92,NNE,19,12.0,13.0,43,0.00,,---,0.00,VWS V14.00,2013-07-01 19:28:00,
2013-07-01 14:33:00,76.1,53.2,29.92,NNE,20,7.0,11.0,45,0.00,,---,0.00,VWS V14.00,2013-07-01 19:33:00,
2013-07-01 14:38:00,76.1,52.6,29.92,NNE,19,5.0,9.0,44,0.00,,---,0.00,VWS V14.00,2013-07-01 19:38:00,
2013-07-01 14:43:00,76.3,53.4,29.92,NNE,18,6.0,11.0,45,0.00,,---,0.00,VWS V14.00,2013-07-01 19:43:00,
2013-07-01 14:49:00,76.0,52.5,29.92,NNE,14,7.0,10.0,44,0.00,,---,0.00,VWS V14.00,2013-07-01 19:49:00,
2013-07-01 14:54:00,75.6,50.9,29.92,NNE,33,6.0,11.0,42,0.00,,---,0.00,VWS V14.00,2013-07-01 19:54:00,
2013-07-01 14:59:00,75.4,52.0,29.92,NNE,18,6.0,6.0,44,0.00,,---,0.00,VWS V14.00,2013-07-01 19:59:00,
2013-07-01 15:04:00,75.6,50.9,29.92,NNE,17,5.0,8.0,42,0.00,,---,0.00,VWS V14.00,2013-07-01 20:04:00,
2013-07-01 15:09:00,75.6,53.4,29.92,NNE,19,5.0,9.0,46,0.00,,---,0.00,VWS V14.00,2013-07-01 20:09:00,
2013-07-01 15:14:00,76.0,53.8,29.92,NNE,20,4.0,6.0,46,0.00,,---,0.00,VWS V14.00,2013-07-01 20:14:00,
2013-07-01 15:19:00,76.1,53.8,29.92,NNE,20,5.0,7.0,46,0.00,,---,0.00,VWS V14.00,2013-07-01 20:19:00,
2013-07-01 15:24:00,76.0,53.2,29.92,NNE,17,6.0,8.0,45,0.00,,---,0.00,VWS V14.00,2013-07-01 20:24:00,
2013-07-01 15:29:00,76.1,52.6,29.92,NNE,25,6.0,11.0,44,0.00,,---,0.00,VWS V14.00,2013-07-01 20:29:00,
2013-07-01 15:34:00,76.5,52.4,29.92,NNE,28,3.0,10.0,43,0.00,,---,0.00,VWS V14.00,2013-07-01 20:34:00,
2013-07-01 15:39:00,76.5,52.4,29.91,NNE,21,6.0,12.0,43,0.00,,---,0.00,VWS V14.00,2013-07-01 20:39:00,
2013-07-01 15:44:00,76.5,52.4,29.91,NNE,19,4.0,7.0,43,0.00,,---,0.00,VWS V14.00,2013-07-01 20:44:00,
2013-07-01 15:49:00,76.7,52.5,29.91,NNE,18,6.0,10.0,43,0.00,,---,0.00,VWS V14.00,2013-07-01 20:49:00,
2013-07-01 15:54:00,76.5,51.7,29.91,NNE,18,6.0,11.0,42,0.00,,---,0.00,VWS V14.00,2013-07-01 20:54:00,
2013-07-01 15:59:00,76.3,51.5,29.91,NNE,22,6.0,10.0,42,0.00,,---,0.00,VWS V14.00,2013-07-01 20:59:00,
2013-07-01 16:04:00,76.7,55.0,29.91,NNE,21,3.0,7.0,47,0.00,,---,0.00,VWS V14.00,2013-07-01 21:04:00,
2013-07-01 16:10:00,76.8,52.6,29.90,NNE,14,6.0,13.0,43,0.00,,---,0.00,VWS V14.00,2013-07-01 21:10:00,
2013-07-01 16:15:00,76.5,53.6,29.90,NNE,19,6.0,10.0,45,0.00,,---,0.00,VWS V14.00,2013-07-01 21:15:00,
2013-07-01 16:20:00,76.5,53.6,29.90,NNE,21,5.0,8.0,45,0.00,,---,0.00,VWS V14.00,2013-07-01 21:20:00,
2013-07-01 16:25:00,76.1,53.8,29.91,NNE,21,7.0,9.0,46,0.00,,---,0.00,VWS V14.00,2013-07-01 21:25:00,
2013-07-01 16:30:00,76.1,53.2,29.91,NNE,19,8.0,9.0,45,0.00,,---,0.00,VWS V14.00,2013-07-01 21:30:00,
2013-07-01 16:35:00,76.0,53.8,29.91,NNE,18,5.0,11.0,46,0.00,,---,0.00,VWS V14.00,2013-07-01 21:35:00,
2013-07-01 16:40:00,76.0,53.8,29.91,NNE,22,7.0,9.0,46,0.00,,---,0.00,VWS V14.00,2013-07-01 21:40:00,
2013-07-01 16:45:00,76.0,54.9,29.91,NNE,26,4.0,7.0,48,0.00,,---,0.00,VWS V14.00,2013-07-01 21:45:00,
2013-07-01 16:50:00,76.1,55.6,29.91,NNE,30,11.0,15.0,49,0.00,,---,0.00,VWS V14.00,2013-07-01 21:50:00,
2013-07-01 16:55:00,75.8,56.4,29.91,NNE,19,10.0,12.0,51,0.00,,---,0.00,VWS V14.00,2013-07-01 21:55:00,
2013-07-01 17:00:00,75.6,56.2,29.91,NNE,27,5.0,10.0,51,0.00,,---,0.00,VWS V14.00,2013-07-01 22:00:00,
2013-07-01 17:05:00,75.4,55.5,29.91,NNE,21,3.0,11.0,50,0.00,,---,0.00,VWS V14.00,2013-07-01 22:05:00,
2013-07-01 17:10:00,75.1,54.7,29.91,NNE,22,8.0,13.0,49,0.00,,---,0.00,VWS V14.00,2013-07-01 22:10:00,
2013-07-01 17:15:00,74.9,54.5,29.91,NNE,25,6.0,11.0,49,0.00,,---,0.00,VWS V14.00,2013-07-01 22:15:00,
2013-07-01 17:20:00,74.6,54.2,29.91,NNE,19,10.0,12.0,49,0.00,,---,0.00,VWS V14.00,2013-07-01 22:20:00,
2013-07-01 17:26:00,74.4,54.0,29.91,NNE,18,10.0,10.0,49,0.00,,---,0.00,VWS V14.00,2013-07-01 22:26:00,
2013-07-01 17:31:00,74.0,53.7,29.91,NNE,14,9.0,10.0,49,0.00,,---,0.00,VWS V14.00,2013-07-01 22:31:00,
2013-07-01 17:36:00,73.7,52.8,29.91,NNE,13,3.0,8.0,48,0.00,,---,0.00,VWS V14.00,2013-07-01 22:36:00,
2013-07-01 17:41:00,73.3,52.5,29.92,NNE,13,6.0,8.0,48,0.00,,---,0.00,VWS V14.00,2013-07-01 22:41:00,
2013-07-01 17:46:00,73.0,52.7,29.92,NNE,17,9.0,12.0,49,0.00,,---,0.00,VWS V14.00,2013-07-01 22:46:00,
2013-07-01 17:51:00,72.7,51.9,29.92,NNE,24,10.0,12.0,48,0.00,,---,0.00,VWS V14.00,2013-07-01 22:51:00,
2013-07-01 17:56:00,72.5,51.2,29.92,NNE,26,10.0,11.0,47,0.00,,---,0.00,VWS V14.00,2013-07-01 22:56:00,
2013-07-01 18:01:00,72.1,51.3,29.92,NNE,24,8.0,9.0,48,0.00,,---,0.00,VWS V14.00,2013-07-01 23:01:00,
2013-07-01 18:06:00,72.0,51.8,29.92,NNE,25,5.0,9.0,49,0.00,,---,0.00,VWS V14.00,2013-07-01 23:06:00,
2013-07-01 18:11:00,72.0,52.9,29.92,NNE,24,3.0,6.0,51,0.00,,---,0.00,VWS V14.00,2013-07-01 23:11:00,
2013-07-01 18:16:00,71.8,52.7,29.92,NNE,22,7.0,9.0,51,0.00,,---,0.00,VWS V14.00,2013-07-01 23:16:00,
2013-07-01 18:21:00,71.8,52.7,29.92,NNE,21,7.0,10.0,51,0.00,,---,0.00,VWS V14.00,2013-07-01 23:21:00,
2013-07-01 18:26:00,71.8,52.7,29.92,NNE,22,7.0,10.0,51,0.00,,---,0.00,VWS V14.00,2013-07-01 23:26:00,
2013-07-01 18:31:00,71.8,52.7,29.92,NNE,21,6.0,9.0,51,0.00,,---,0.00,VWS V14.00,2013-07-01 23:31:00,
2013-07-01 18:36:00,71.8,53.8,29.92,NNE,21,7.0,9.0,53,0.00,,---,0.00,VWS V14.00,2013-07-01 23:36:00,
2013-07-01 18:41:00,71.8,53.2,29.92,NNE,19,5.0,7.0,52,0.00,,---,0.00,VWS V14.00,2013-07-01 23:41:00,
2013-07-01 18:42:00,71.8,53.2,29.92,NNE,19,5.0,7.0,52,0.00,,---,0.00,VWS V14.00,2013-07-01 23:42:00,
2013-07-01 18:47:00,71.8,53.2,29.92,NNE,19,4.0,5.0,52,0.00,,---,0.00,VWS V14.00,2013-07-01 23:47:00,
2013-07-01 18:52:00,71.6,53.6,29.92,NNE,19,4.0,6.0,53,0.00,,---,0.00,VWS V14.00,2013-07-01 23:52:00,
2013-07-01 18:57:00,71.6,53.6,29.92,NNE,19,5.0,7.0,53,0.00,,---,0.00,VWS V14.00,2013-07-01 23:57:00,
2013-07-01 19:02:00,71.5,54.0,29.92,NNE,20,6.0,6.0,54,0.00,,---,0.00,VWS V14.00,2013-07-02 00:02:00,
2013-07-01 19:07:00,71.5,54.0,29.92,NNE,20,9.0,9.0,54,0.00,,---,0.00,VWS V14.00,2013-07-02 00:07:00,
2013-07-01 19:12:00,71.3,54.3,29.92,NNE,19,5.0,7.0,55,0.00,,---,0.00,VWS V14.00,2013-07-02 00:12:00,
2013-07-01 19:17:00,71.1,54.6,29.92,NNE,19,8.0,10.0,56,0.00,,---,0.00,VWS V14.00,2013-07-02 00:17:00,
2013-07-01 19:22:00,71.1,54.6,29.93,NNE,20,3.0,9.0,56,0.00,,---,0.00,VWS V14.00,2013-07-02 00:22:00,
2013-07-01 19:27:00,71.1,54.6,29.93,NNE,23,7.0,10.0,56,0.00,,---,0.00,VWS V14.00,2013-07-02 00:27:00,
2013-07-01 19:33:00,71.1,54.6,29.93,NNE,28,6.0,10.0,56,0.00,,---,0.00,VWS V14.00,2013-07-02 00:33:00,
2013-07-01 19:38:00,71.1,54.6,29.93,NNE,23,8.0,10.0,56,0.00,,---,0.00,VWS V14.00,2013-07-02 00:38:00,
2013-07-01 19:43:00,71.1,54.6,29.93,NNE,24,11.0,14.0,56,0.00,,---,0.00,VWS V14.00,2013-07-02 00:43:00,
2013-07-01 19:48:00,70.9,54.4,29.93,NNE,24,9.0,11.0,56,0.00,,---,0.00,VWS V14.00,2013-07-02 00:48:00,
2013-07-01 19:53:00,70.9,54.4,29.94,NNE,30,5.0,11.0,56,0.00,,---,0.00,VWS V14.00,2013-07-02 00:53:00,
2013-07-01 19:58:00,70.8,54.3,29.94,NNE,28,5.0,6.0,56,0.00,,---,0.00,VWS V14.00,2013-07-02 00:58:00,
2013-07-01 20:03:00,70.6,54.2,29.94,NNE,30,7.0,10.0,56,0.00,,---,0.00,VWS V14.00,2013-07-02 01:03:00,
2013-07-01 20:08:00,70.4,54.5,29.94,NNE,28,7.0,9.0,57,0.00,,---,0.00,VWS V14.00,2013-07-02 01:08:00,
2013-07-01 20:13:00,70.4,54.5,29.94,NNE,29,5.0,9.0,57,0.00,,---,0.00,VWS V14.00,2013-07-02 01:13:00,
2013-07-01 20:18:00,70.3,54.8,29.94,NNE,30,4.0,6.0,58,0.00,,---,0.00,VWS V14.00,2013-07-02 01:18:00,
2013-07-01 20:23:00,70.1,54.7,29.95,NNE,32,5.0,7.0,58,0.00,,---,0.00,VWS V14.00,2013-07-02 01:23:00,
2013-07-01 20:29:00,69.9,54.9,29.95,NNE,32,5.0,6.0,59,0.00,,---,0.00,VWS V14.00,2013-07-02 01:29:00,
2013-07-01 20:34:00,69.9,54.9,29.95,NNE,32,4.0,6.0,59,0.00,,---,0.00,VWS V14.00,2013-07-02 01:34:00,
2013-07-01 20:39:00,69.8,54.8,29.95,NNE,32,3.0,5.0,59,0.00,,---,0.00,VWS V14.00,2013-07-02 01:39:00,
2013-07-01 20:44:00,69.6,55.1,29.95,NNE,32,2.0,2.0,60,0.00,,---,0.00,VWS V14.00,2013-07-02 01:44:00,
2013-07-01 20:49:00,69.4,54.9,29.95,NNE,32,2.0,4.0,60,0.00,,---,0.00,VWS V14.00,2013-07-02 01:49:00,
2013-07-01 20:54:00,69.3,55.3,29.95,NNE,32,2.0,4.0,61,0.00,,---,0.00,VWS V14.00,2013-07-02 01:54:00,
2013-07-01 20:59:00,69.1,55.1,29.95,NNE,32,3.0,4.0,61,0.00,,---,0.00,VWS V14.00,2013-07-02 01:59:00,
2013-07-01 21:04:00,69.1,55.5,29.95,NNE,32,0.0,0.0,62,0.00,,---,0.00,VWS V14.00,2013-07-02 02:04:00,
2013-07-01 21:09:00,68.9,56.2,29.95,NNE,32,0.0,0.0,64,0.00,,---,0.00,VWS V14.00,2013-07-02 02:09:00,
2013-07-01 21:14:00,68.6,57.2,29.95,NNE,32,3.0,5.0,67,0.00,,---,0.00,VWS V14.00,2013-07-02 02:14:00,
2013-07-01 21:19:00,68.4,57.4,29.95,NNE,32,3.0,5.0,68,0.00,,---,0.00,VWS V14.00,2013-07-02 02:19:00,
2013-07-01 21:25:00,68.4,58.2,29.95,NNE,32,0.0,3.0,70,0.00,,---,0.00,VWS V14.00,2013-07-02 02:25:00,
2013-07-01 21:29:00,68.1,58.3,29.95,NNE,32,4.0,4.0,71,0.00,,---,0.00,VWS V14.00,2013-07-02 02:29:00,
2013-07-01 21:34:00,67.9,58.5,29.95,NNE,32,3.0,3.0,72,0.00,,---,0.00,VWS V14.00,2013-07-02 02:34:00,
2013-07-01 21:39:00,67.8,58.8,29.96,NNE,32,0.0,3.0,73,0.00,,---,0.00,VWS V14.00,2013-07-02 02:39:00,
2013-07-01 21:45:00,67.4,58.8,29.96,NNE,32,3.0,3.0,74,0.00,,---,0.00,VWS V14.00,2013-07-02 02:45:00,
2013-07-01 21:50:00,67.3,58.7,29.96,NNE,32,3.0,3.0,74,0.00,,---,0.00,VWS V14.00,2013-07-02 02:50:00,
2013-07-01 21:55:00,67.3,59.1,29.96,NNE,32,1.0,4.0,75,0.00,,---,0.00,VWS V14.00,2013-07-02 02:55:00,
2013-07-01 22:00:00,67.1,58.9,29.96,NNE,32,4.0,4.0,75,0.00,,---,0.00,VWS V14.00,2013-07-02 03:00:00,
2013-07-01 22:05:00,67.1,58.9,29.96,NNE,32,1.0,4.0,75,0.00,,---,0.00,VWS V14.00,2013-07-02 03:05:00,
2013-07-01 22:10:00,66.9,58.7,29.96,NNE,32,2.0,3.0,75,0.00,,---,0.00,VWS V14.00,2013-07-02 03:10:00,
2013-07-01 22:15:00,66.9,58.7,29.96,NNE,32,1.0,5.0,75,0.00,,---,0.00,VWS V14.00,2013-07-02 03:15:00,
2013-07-01 22:20:00,66.8,59.0,29.96,NNE,32,3.0,3.0,76,0.00,,---,0.00,VWS V14.00,2013-07-02 03:20:00,
2013-07-01 22:25:00,66.6,58.8,29.96,NNE,32,3.0,4.0,76,0.00,,---,0.00,VWS V14.00,2013-07-02 03:25:00,
2013-07-01 22:30:00,66.4,59.0,29.96,NNE,32,1.0,4.0,77,0.00,,---,0.00,VWS V14.00,2013-07-02 03:30:00,
2013-07-01 22:35:00,66.3,59.2,29.96,NNE,32,0.0,2.0,78,0.00,,---,0.00,VWS V14.00,2013-07-02 03:35:00,
2013-07-01 22:40:00,66.1,59.4,29.96,NNE,32,1.0,3.0,79,0.00,,---,0.00,VWS V14.00,2013-07-02 03:40:00,
2013-07-01 22:46:00,66.0,59.7,29.96,NNE,32,0.0,3.0,80,0.00,,---,0.00,VWS V14.00,2013-07-02 03:46:00,
2013-07-01 22:51:00,66.0,60.0,29.96,NNE,32,0.0,2.0,81,0.00,,---,0.00,VWS V14.00,2013-07-02 03:51:00,
2013-07-01 22:56:00,65.8,59.8,29.96,NNE,32,0.0,0.0,81,0.00,,---,0.00,VWS V14.00,2013-07-02 03:56:00,
2013-07-01 23:01:00,65.6,59.6,29.96,NNE,32,0.0,0.0,81,0.00,,---,0.00,VWS V14.00,2013-07-02 04:01:00,
2013-07-01 23:02:00,65.5,59.2,29.96,NNE,32,0.0,0.0,80,0.00,,---,0.00,VWS V14.00,2013-07-02 04:02:00,
2013-07-01 23:07:00,65.3,59.0,29.96,NNE,32,0.0,0.0,80,0.00,,---,0.00,VWS V14.00,2013-07-02 04:07:00,
2013-07-01 23:12:00,65.2,58.2,29.96,NNE,32,3.0,4.0,78,0.00,,---,0.00,VWS V14.00,2013-07-02 04:12:00,
2013-07-01 23:17:00,65.2,58.2,29.96,NNE,32,1.0,2.0,78,0.00,,---,0.00,VWS V14.00,2013-07-02 04:17:00,
2013-07-01 23:23:00,65.0,57.6,29.96,NNE,32,2.0,2.0,77,0.00,,---,0.00,VWS V14.00,2013-07-02 04:23:00,
2013-07-01 23:28:00,64.8,57.1,29.96,NNE,32,2.0,3.0,76,0.00,,---,0.00,VWS V14.00,2013-07-02 04:28:00,
2013-07-01 23:33:00,64.5,56.4,29.96,NNE,32,3.0,4.0,75,0.00,,---,0.00,VWS V14.00,2013-07-02 04:33:00,
2013-07-01 23:38:00,64.2,55.8,29.96,NNE,32,2.0,3.0,74,0.00,,---,0.00,VWS V14.00,2013-07-02 04:38:00,
2013-07-01 23:43:00,64.0,55.2,29.96,NNE,32,1.0,2.0,73,0.00,,---,0.00,VWS V14.00,2013-07-02 04:43:00,
2013-07-01 23:48:00,63.9,55.1,29.96,NNE,32,2.0,3.0,73,0.00,,---,0.00,VWS V14.00,2013-07-02 04:48:00,
2013-07-01 23:53:00,63.9,55.1,29.96,NNE,32,0.0,3.0,73,0.00,,---,0.00,VWS V14.00,2013-07-02 04:53:00,
2013-07-01 23:58:00,63.7,55.3,29.96,NNE,32,3.0,3.0,74,0.00,,---,0.00,VWS V14.00,2013-07-02 04:58:00,